User: anonymous   Login
Location: La Brionne
(46.1728°N, 1.7849°E)
Time: 22:19:35
(UTC+00:00)
Language:

Cosmos 2058 Rocket - Orbit

View from above orbital plane
View from above orbital plane
View from above satellite
View from above satellite

Ground track
Ground track

The orbit data is extracted from the following two-line orbital elements,

1 20466U 90010B   21266.29409732  .00000105  00000-0  10451-4 0  9992
2 20466  82.5065 353.6116 0018998 255.9466 103.9636 14.81438386708316
Epoch (UTC): 23 September 2021 07:03:30
Eccentricity: 0.0018998
inclination: 82.5065°
perigee height: 611 km
apogee height: 638 km
right ascension of ascending node: 353.6116°
argument of perigee: 255.9466°
revolutions per day: 14.81438386
mean anomaly at epoch: 103.9636°
orbit number at epoch: 70831

The dashed part of the orbit path shows where the satellite is in the earth's shadow,  

DLR